Weather History for KDAN - March, 2013

Change the Weather History Date:

Friday, March 8, 2013

  Actual Average Record
Temperature  
Mean Temperature 44 °F 46 °F  
Max Temperature 56 °F 56 °F 83 °F (2009)
Min Temperature 32 °F 36 °F 14 °F (1960)
Degree Days  
Heating Degree Days 21 19  
Month to date heating degree days 202 160  
Since 1 July heating degree days 2997 3161  
Cooling Degree Days 0 0  
Month to date cooling degree days 0 0  
Year to date cooling degree days 2 0  
Moisture  
Dew Point 23 °F    
Average Humidity 45    
Maximum Humidity 64    
Minimum Humidity 26    
Precipitation  
Precipitation 0.00 in 0.11 in 0.65 in (1996)
Month to date precipitation 0.72 0.85  
Year to date precipitation 10.53 7.28  
Snow  
Snow 0.00 in - - ()
Month to date snowfall T  
Since 1 July snowfall 1.7  
Snow Depth 0.00 in    
Sea Level Pressure  
Sea Level Pressure 30.23 in    
Wind  
Wind Speed 10 mph (NW)    
Max Wind Speed 21 mph    
Max Gust Speed 29 mph    
Visibility 10 miles    
Events      
T = Trace of Precipitation, MM = Missing Value Source: NWS Daily Summary

Daily Weather History Graph

Daily Weather History Graph

Search for Another Location

Airport or City:

Trip Planner

Search our weather history database for the weather conditions in past years. The results will help you decide how hot, cold, wet, or windy it might be!

Date:

Astronomy

Mar. 08, 2013 Rise Set
Actual Time 6:37 AM EST 6:18 PM EST
Civil Twilight 6:12 AM EST 6:44 PM EST
Nautical Twilight 5:42 AM EST 7:14 PM EST
Astronomical Twilight 5:12 AM EST 7:44 PM EST
Moon 4:16 AM EST (3/8) 3:15 PM EST (3/8)
Length of Visible Light 12h 32m
Length of Day
11h 40m
Waning Crescent, 12% of the Moon is Illuminated
Mar 8
Waning Crescent
Mar 11
New
Mar 19
First Quarter
Mar 27
Full
Apr 3
Last Quarter

Hourly Weather History & Observations

Time (EST) Temp. Windchill Dew Point Humidity Pressure Visibility Wind Dir Wind Speed Gust Speed Precip Events Conditions
12:53 AM 35.1 °F 29.3 °F 21.9 °F 59% 30.23 in 10.0 mi WNW 6.9 mph - N/A   Clear
1:53 AM 36.0 °F 29.0 °F 23.0 °F 59% 30.22 in 10.0 mi WNW 9.2 mph - N/A   Clear
2:53 AM 34.0 °F 28.0 °F 23.0 °F 64% 30.21 in 10.0 mi West 6.9 mph - N/A   Clear
3:53 AM 35.1 °F 28.6 °F 23.0 °F 61% 30.20 in 10.0 mi West 8.1 mph - N/A   Clear
4:53 AM 34.0 °F 28.8 °F 23.0 °F 64% 30.21 in 10.0 mi West 5.8 mph - N/A   Mostly Cloudy
5:53 AM 34.0 °F 28.8 °F 23.0 °F 64% 30.22 in 10.0 mi West 5.8 mph - N/A   Overcast
6:53 AM 34.0 °F 29.8 °F 23.0 °F 64% 30.24 in 10.0 mi West 4.6 mph - N/A   Mostly Cloudy
7:53 AM 37.9 °F 35.5 °F 24.1 °F 57% 30.25 in 10.0 mi NW 3.5 mph - N/A   Clear
8:53 AM 44.1 °F 37.1 °F 24.1 °F 45% 30.25 in 10.0 mi NW 15.0 mph 20.7 mph N/A   Clear
9:53 AM 46.0 °F 39.0 °F 21.0 °F 37% 30.27 in 10.0 mi NW 17.3 mph 23.0 mph N/A   Partly Cloudy
10:53 AM 48.0 °F - 21.0 °F 34% 30.25 in 10.0 mi NNW 15.0 mph 24.2 mph N/A   Clear
11:53 AM 50.0 °F - 19.9 °F 31% 30.24 in 10.0 mi NNW 18.4 mph 27.6 mph N/A   Clear
12:53 PM 52.0 °F - 21.0 °F 30% 30.22 in 10.0 mi NW 13.8 mph 25.3 mph N/A   Clear
1:53 PM 54.0 °F - 21.9 °F 29% 30.17 in 10.0 mi NNW 12.7 mph 17.3 mph N/A   Clear
2:53 PM 55.0 °F - 21.9 °F 28% 30.17 in 10.0 mi NNW 15.0 mph 21.9 mph N/A   Clear
3:53 PM 55.0 °F - 21.9 °F 28% 30.18 in 10.0 mi NNW 12.7 mph 19.6 mph N/A   Clear
4:53 PM 54.0 °F - 21.0 °F 28% 30.19 in 10.0 mi NNW 13.8 mph 23.0 mph N/A   Clear
5:53 PM 52.0 °F - 21.0 °F 30% 30.20 in 10.0 mi NNW 12.7 mph - N/A   Clear
6:53 PM 48.0 °F - 21.9 °F 36% 30.22 in 10.0 mi NW 8.1 mph - N/A   Clear
7:53 PM 45.0 °F 41.2 °F 23.0 °F 42% 30.24 in 10.0 mi North 6.9 mph - N/A   Clear
8:53 PM 45.0 °F 39.3 °F 24.1 °F 44% 30.25 in 10.0 mi North 11.5 mph 19.6 mph N/A   Clear
9:53 PM 43.0 °F 39.5 °F 24.1 °F 47% 30.28 in 10.0 mi NNW 5.8 mph - N/A   Clear
10:53 PM 39.9 °F 36.7 °F 24.1 °F 53% 30.30 in 10.0 mi NNW 4.6 mph - N/A   Clear
11:53 PM 37.9 °F 33.5 °F 24.1 °F 57% 30.30 in 10.0 mi NNW 5.8 mph - N/A   Clear